Location: Unspecified
(30.0901°N, 0.0000°E)
Time: 14:09:40
(UTC+00:00)

Cosmos 494 Rocket - Visible Passes

Search period start: 04 April 2026 00:00
Search period end: 14 April 2026 00:00
Orbit: 738 x 764 km, 74.1° (Epoch: 29 March)

Date Brightness Start Highest point End Pass type
(mag) Time Alt. Az. Time Alt. Az. Time Alt. Az.
7 Apr 6.5 21:29:45 10° N 21:30:23 13° N 21:30:23 13° N visible
8 Apr 6.2 20:48:22 10° NNE 20:49:22 14° NNE 20:49:22 14° NNE visible
9 Apr 6.2 20:08:07 10° NE 20:08:23 11° NE 20:08:23 11° NE visible
9 Apr 6.5 21:47:13 10° NNW 21:48:20 17° NNW 21:48:20 17° NNW visible
10 Apr 5.7 21:05:09 10° N 21:07:23 26° N 21:07:23 26° N visible
11 Apr 5.4 20:23:35 10° N 20:26:29 26° NE 20:26:29 26° NE visible
11 Apr 6.8 22:05:41 10° NW 22:06:26 13° NW 22:06:26 13° NW visible
12 Apr 5.7 19:42:49 10° NNE 19:45:38 16° ENE 19:45:38 16° ENE visible
12 Apr 5.7 21:22:49 10° NNW 21:25:35 29° NW 21:25:35 29° NW visible
13 Apr 4.3 20:40:36 10° NNW 20:44:47 58° N 20:44:47 58° N visible
